Time,TemperatureF,DewpointF,PressureIn,WindDirection,WindDirectionDegrees,WindSpeedMPH,WindSpeedGustMPH,Humidity,HourlyPrecipIn,Conditions,Clouds,dailyrainin,SoftwareType,DateUTC
2013-05-04 00:01:00,19.0,17.0,-100.00,North,355,9.0,17.0,90,0.00,,,0.00,,2013-05-04 08:01:00,
2013-05-04 00:11:00,19.0,17.0,-100.00,North,355,9.0,17.0,90,0.00,,,0.00,,2013-05-04 08:11:00,
2013-05-04 00:21:00,19.0,17.0,-100.00,NNW,335,7.0,14.0,90,0.00,,,0.00,,2013-05-04 08:21:00,
2013-05-04 00:31:00,19.0,17.0,-100.00,NNW,335,7.0,14.0,90,0.00,,,0.00,,2013-05-04 08:31:00,
2013-05-04 00:41:00,19.0,17.0,-100.00,NNW,335,7.0,14.0,90,0.00,,,0.00,,2013-05-04 08:41:00,
2013-05-04 00:52:00,19.0,17.0,-100.00,NW,320,6.0,12.0,90,0.00,,,0.00,,2013-05-04 08:52:00,
2013-05-04 01:02:00,19.0,17.0,-100.00,NW,320,6.0,12.0,90,0.00,,,0.00,,2013-05-04 09:02:00,
2013-05-04 01:11:00,19.0,17.0,-100.00,NW,320,6.0,12.0,90,0.00,,,0.00,,2013-05-04 09:11:00,
2013-05-04 01:21:00,19.0,17.0,-100.00,NNW,345,4.0,10.0,90,0.00,,,0.00,,2013-05-04 09:21:00,
2013-05-04 01:32:00,19.0,17.0,-100.00,NNW,345,4.0,10.0,90,0.00,,,0.00,,2013-05-04 09:32:00,
2013-05-04 01:42:00,19.0,17.0,-100.00,NNW,345,4.0,10.0,90,0.00,,,0.00,,2013-05-04 09:42:00,
2013-05-04 01:52:00,19.0,17.0,-100.00,NNW,335,4.0,9.0,90,0.00,,,0.00,,2013-05-04 09:52:00,
2013-05-04 02:02:00,19.0,17.0,-100.00,NNW,335,4.0,9.0,90,0.00,,,0.00,,2013-05-04 10:02:00,
2013-05-04 02:12:00,19.0,17.0,-100.00,NNW,335,4.0,9.0,90,0.00,,,0.00,,2013-05-04 10:12:00,
2013-05-04 02:22:00,19.0,17.0,-100.00,NW,325,4.0,7.0,90,0.00,,,0.00,,2013-05-04 10:22:00,
2013-05-04 02:33:00,19.0,17.0,-100.00,NW,325,4.0,7.0,90,0.00,,,0.00,,2013-05-04 10:33:00,
2013-05-04 02:42:00,19.0,17.0,-100.00,NW,325,4.0,7.0,90,0.00,,,0.00,,2013-05-04 10:42:00,
2013-05-04 02:52:00,19.0,17.0,-100.00,North,355,4.0,9.0,90,0.00,,,0.00,,2013-05-04 10:52:00,
2013-05-04 03:02:00,19.0,17.0,-100.00,North,355,4.0,9.0,90,0.00,,,0.00,,2013-05-04 11:02:00,
2013-05-04 03:11:00,19.0,17.0,-100.00,North,355,4.0,9.0,90,0.00,,,0.00,,2013-05-04 11:11:00,
2013-05-04 03:21:00,18.0,16.0,-100.00,North,0,6.0,8.0,90,0.00,,,0.00,,2013-05-04 11:21:00,
2013-05-04 03:32:00,18.0,16.0,-100.00,North,0,6.0,8.0,90,0.00,,,0.00,,2013-05-04 11:32:00,
2013-05-04 03:42:00,18.0,16.0,-100.00,North,0,6.0,8.0,90,0.00,,,0.00,,2013-05-04 11:42:00,
2013-05-04 03:54:00,17.0,15.0,-100.00,North,0,4.0,6.0,90,0.00,,,0.00,,2013-05-04 11:54:00,
2013-05-04 04:04:00,17.0,15.0,-100.00,North,0,4.0,6.0,90,0.00,,,0.00,,2013-05-04 12:04:00,
2013-05-04 04:12:00,17.0,15.0,-100.00,North,0,4.0,6.0,90,0.00,,,0.00,,2013-05-04 12:12:00,
2013-05-04 04:23:00,17.0,15.0,-100.00,NNW,340,4.0,7.0,90,0.00,,,0.00,,2013-05-04 12:23:00,
2013-05-04 04:42:00,17.0,15.0,-100.00,NNW,340,4.0,7.0,90,0.00,,,0.00,,2013-05-04 12:42:00,
2013-05-04 04:51:00,17.0,14.0,-100.00,NNW,345,4.0,6.0,90,0.00,,,0.00,,2013-05-04 12:51:00,
2013-05-04 05:01:00,17.0,14.0,-100.00,NNW,345,4.0,6.0,90,0.00,,,0.00,,2013-05-04 13:01:00,
2013-05-04 05:11:00,17.0,14.0,-100.00,NNW,345,4.0,6.0,90,0.00,,,0.00,,2013-05-04 13:11:00,
2013-05-04 05:21:00,17.0,14.0,-100.00,North,0,3.0,6.0,89,0.00,,,0.00,,2013-05-04 13:21:00,
2013-05-04 05:32:00,17.0,14.0,-100.00,North,0,3.0,6.0,89,0.00,,,0.00,,2013-05-04 13:32:00,
2013-05-04 05:41:00,17.0,14.0,-100.00,North,0,3.0,6.0,89,0.00,,,0.00,,2013-05-04 13:41:00,
2013-05-04 05:52:00,17.0,14.0,-100.00,NNW,345,4.0,7.0,89,0.00,,,0.00,,2013-05-04 13:52:00,
2013-05-04 06:02:00,17.0,14.0,-100.00,NNW,345,4.0,7.0,89,0.00,,,0.00,,2013-05-04 14:02:00,
2013-05-04 06:11:00,17.0,14.0,-100.00,NNW,345,4.0,7.0,89,0.00,,,0.00,,2013-05-04 14:11:00,
2013-05-04 06:21:00,17.0,15.0,-100.00,North,0,3.0,7.0,89,0.00,,,0.00,,2013-05-04 14:21:00,
2013-05-04 06:32:00,17.0,15.0,-100.00,North,0,3.0,7.0,89,0.00,,,0.00,,2013-05-04 14:32:00,
2013-05-04 06:41:00,17.0,15.0,-100.00,North,0,3.0,7.0,89,0.00,,,0.00,,2013-05-04 14:41:00,
2013-05-04 06:51:00,17.0,15.0,-100.00,North,0,4.0,7.0,89,0.00,,,0.00,,2013-05-04 14:51:00,
2013-05-04 07:02:00,17.0,15.0,-100.00,North,0,4.0,7.0,89,0.00,,,0.00,,2013-05-04 15:02:00,
2013-05-04 07:11:00,17.0,15.0,-100.00,North,0,4.0,7.0,89,0.00,,,0.00,,2013-05-04 15:11:00,
2013-05-04 07:21:00,18.0,15.0,-100.00,North,0,3.0,6.0,89,0.00,,,0.00,,2013-05-04 15:21:00,
2013-05-04 07:33:00,18.0,15.0,-100.00,North,0,3.0,6.0,89,0.00,,,0.00,,2013-05-04 15:33:00,
2013-05-04 07:43:00,18.0,15.0,-100.00,North,0,3.0,6.0,89,0.00,,,0.00,,2013-05-04 15:43:00,
2013-05-04 07:52:00,18.0,16.0,-100.00,NNW,345,2.0,7.0,89,0.00,,,0.00,,2013-05-04 15:52:00,
2013-05-04 08:03:00,18.0,16.0,-100.00,NNW,345,2.0,7.0,89,0.00,,,0.00,,2013-05-04 16:03:00,
2013-05-04 08:12:00,18.0,16.0,-100.00,NNW,345,2.0,7.0,89,0.00,,,0.00,,2013-05-04 16:12:00,
2013-05-04 08:22:00,19.0,16.0,-100.00,NNW,330,4.0,9.0,90,0.00,,,0.00,,2013-05-04 16:22:00,
2013-05-04 08:33:00,19.0,16.0,-100.00,NNW,330,4.0,9.0,90,0.00,,,0.00,,2013-05-04 16:33:00,
2013-05-04 08:42:00,19.0,16.0,-100.00,NNW,330,4.0,9.0,90,0.00,,,0.00,,2013-05-04 16:42:00,
2013-05-04 08:52:00,20.0,17.0,-100.00,North,0,4.0,9.0,90,0.00,,,0.00,,2013-05-04 16:52:00,
2013-05-04 09:02:00,20.0,17.0,-100.00,North,0,4.0,9.0,90,0.00,,,0.00,,2013-05-04 17:02:00,
2013-05-04 09:12:00,20.0,17.0,-100.00,North,0,4.0,9.0,90,0.00,,,0.00,,2013-05-04 17:12:00,
2013-05-04 09:22:00,20.0,17.0,-100.00,NNW,340,4.0,7.0,90,0.00,,,0.00,,2013-05-04 17:22:00,
2013-05-04 09:32:00,20.0,17.0,-100.00,NNW,340,4.0,7.0,90,0.00,,,0.00,,2013-05-04 17:32:00,
2013-05-04 09:42:00,20.0,17.0,-100.00,NNW,340,4.0,7.0,90,0.00,,,0.00,,2013-05-04 17:42:00,
2013-05-04 09:52:00,19.0,17.0,-100.00,NW,315,4.0,7.0,89,0.00,,,0.00,,2013-05-04 17:52:00,
2013-05-04 10:01:00,19.0,17.0,-100.00,NW,315,4.0,7.0,89,0.00,,,0.00,,2013-05-04 18:01:00,
2013-05-04 10:12:00,19.0,17.0,-100.00,NW,315,4.0,7.0,89,0.00,,,0.00,,2013-05-04 18:12:00,
2013-05-04 10:21:00,20.0,18.0,-100.00,North,0,3.0,6.0,89,0.00,,,0.00,,2013-05-04 18:21:00,
2013-05-04 10:32:00,20.0,18.0,-100.00,North,0,3.0,6.0,89,0.00,,,0.00,,2013-05-04 18:32:00,
2013-05-04 10:42:00,20.0,18.0,-100.00,North,0,3.0,6.0,89,0.00,,,0.00,,2013-05-04 18:42:00,
2013-05-04 10:52:00,21.0,19.0,-100.00,NNW,340,2.0,6.0,90,0.00,,,0.00,,2013-05-04 18:52:00,
2013-05-04 11:01:00,21.0,19.0,-100.00,NNW,340,2.0,6.0,90,0.00,,,0.00,,2013-05-04 19:01:00,
2013-05-04 11:11:00,21.0,19.0,-100.00,NNW,340,2.0,6.0,90,0.00,,,0.00,,2013-05-04 19:11:00,
2013-05-04 11:21:00,21.0,19.0,-100.00,NW,305,2.0,7.0,90,0.00,,,0.00,,2013-05-04 19:21:00,
2013-05-04 11:31:00,21.0,19.0,-100.00,NW,305,2.0,7.0,90,0.00,,,0.00,,2013-05-04 19:31:00,
2013-05-04 11:42:00,21.0,19.0,-100.00,NW,305,2.0,7.0,90,0.00,,,0.00,,2013-05-04 19:42:00,
2013-05-04 11:52:00,22.0,19.0,-100.00,North,5,4.0,7.0,90,0.00,,,0.00,,2013-05-04 19:52:00,
2013-05-04 12:02:00,22.0,19.0,-100.00,North,5,4.0,7.0,90,0.00,,,0.00,,2013-05-04 20:02:00,
2013-05-04 12:11:00,22.0,19.0,-100.00,North,5,4.0,7.0,90,0.00,,,0.00,,2013-05-04 20:11:00,
2013-05-04 12:21:00,22.0,20.0,-100.00,NNW,330,3.0,8.0,90,0.00,,,0.00,,2013-05-04 20:21:00,
2013-05-04 12:32:00,22.0,20.0,-100.00,NNW,330,3.0,8.0,90,0.00,,,0.00,,2013-05-04 20:32:00,
2013-05-04 12:41:00,22.0,20.0,-100.00,NNW,330,3.0,8.0,90,0.00,,,0.00,,2013-05-04 20:41:00,
2013-05-04 12:51:00,22.0,20.0,-100.00,NW,320,4.0,8.0,90,0.00,,,0.00,,2013-05-04 20:51:00,
2013-05-04 13:02:00,22.0,20.0,-100.00,NW,320,4.0,8.0,90,0.00,,,0.00,,2013-05-04 21:02:00,
2013-05-04 13:11:00,22.0,20.0,-100.00,NW,320,4.0,8.0,90,0.00,,,0.00,,2013-05-04 21:11:00,
2013-05-04 13:22:00,23.0,20.0,-100.00,NNW,345,6.0,10.0,90,0.00,,,0.00,,2013-05-04 21:22:00,
2013-05-04 13:33:00,23.0,20.0,-100.00,NNW,345,6.0,10.0,90,0.00,,,0.00,,2013-05-04 21:33:00,
2013-05-04 13:43:00,23.0,20.0,-100.00,NNW,345,6.0,10.0,90,0.00,,,0.00,,2013-05-04 21:43:00,
2013-05-04 13:52:00,24.0,21.0,-100.00,NNW,335,2.0,9.0,90,0.00,,,0.00,,2013-05-04 21:52:00,
2013-05-04 14:03:00,24.0,21.0,-100.00,NNW,335,2.0,9.0,90,0.00,,,0.00,,2013-05-04 22:03:00,
2013-05-04 14:12:00,24.0,21.0,-100.00,NNW,335,2.0,9.0,90,0.00,,,0.00,,2013-05-04 22:12:00,
2013-05-04 14:22:00,24.0,22.0,-100.00,North,0,2.0,11.0,90,0.00,,,0.00,,2013-05-04 22:22:00,
2013-05-04 14:32:00,24.0,22.0,-100.00,North,0,2.0,11.0,90,0.00,,,0.00,,2013-05-04 22:32:00,
2013-05-04 14:42:00,24.0,22.0,-100.00,North,0,2.0,11.0,90,0.00,,,0.00,,2013-05-04 22:42:00,
2013-05-04 14:52:00,25.0,22.0,-100.00,NW,315,5.0,10.0,90,0.01,,,0.01,,2013-05-04 22:52:00,
2013-05-04 15:02:00,25.0,22.0,-100.00,NW,315,5.0,10.0,90,0.01,,,0.01,,2013-05-04 23:02:00,
2013-05-04 15:11:00,25.0,22.0,-100.00,NW,315,5.0,10.0,90,0.01,,,0.01,,2013-05-04 23:11:00,
2013-05-04 15:21:00,27.0,24.0,-100.00,West,280,4.0,9.0,88,0.04,,,0.04,,2013-05-04 23:21:00,
2013-05-04 15:32:00,27.0,24.0,-100.00,West,280,4.0,9.0,88,0.04,,,0.04,,2013-05-04 23:32:00,
2013-05-04 15:42:00,27.0,24.0,-100.00,West,280,4.0,9.0,88,0.04,,,0.04,,2013-05-04 23:42:00,
2013-05-04 15:52:00,28.0,24.0,-100.00,NNW,335,5.0,11.0,86,0.06,,,0.08,,2013-05-04 23:52:00,
2013-05-04 16:01:00,28.0,24.0,-100.00,NNW,335,5.0,11.0,86,0.06,,,0.08,,2013-05-05 00:01:00,
2013-05-04 16:11:00,28.0,24.0,-100.00,NNW,335,5.0,11.0,86,0.06,,,0.08,,2013-05-05 00:11:00,
2013-05-04 16:21:00,29.0,23.0,-100.00,NW,320,6.0,13.0,79,0.06,,,0.11,,2013-05-05 00:21:00,
2013-05-04 16:31:00,29.0,23.0,-100.00,NW,320,6.0,13.0,79,0.06,,,0.11,,2013-05-05 00:31:00,
2013-05-04 16:42:00,29.0,23.0,-100.00,NW,320,6.0,13.0,79,0.06,,,0.11,,2013-05-05 00:42:00,
2013-05-04 16:51:00,32.0,20.0,-100.00,NW,325,6.0,12.0,62,0.07,,,0.16,,2013-05-05 00:51:00,
2013-05-04 17:01:00,32.0,20.0,-100.00,NW,325,6.0,12.0,62,0.07,,,0.16,,2013-05-05 01:01:00,
2013-05-04 17:11:00,32.0,20.0,-100.00,NW,325,6.0,12.0,62,0.07,,,0.16,,2013-05-05 01:11:00,
2013-05-04 17:21:00,31.0,17.0,-100.00,NW,315,4.0,16.0,55,0.03,,,0.16,,2013-05-05 01:21:00,
2013-05-04 17:32:00,31.0,17.0,-100.00,NW,315,4.0,16.0,55,0.03,,,0.16,,2013-05-05 01:32:00,
2013-05-04 17:42:00,31.0,17.0,-100.00,NW,315,4.0,16.0,55,0.03,,,0.16,,2013-05-05 01:42:00,
2013-05-04 17:52:00,30.0,16.0,-100.00,NNW,340,6.0,11.0,54,0.00,,,0.16,,2013-05-05 01:52:00,
2013-05-04 18:02:00,30.0,16.0,-100.00,NNW,340,6.0,11.0,54,0.00,,,0.16,,2013-05-05 02:02:00,
2013-05-04 18:11:00,30.0,16.0,-100.00,NNW,340,6.0,11.0,54,0.00,,,0.16,,2013-05-05 02:11:00,
2013-05-04 18:21:00,31.0,15.0,-100.00,West,265,6.0,11.0,52,0.00,,,0.16,,2013-05-05 02:21:00,
2013-05-04 18:31:00,31.0,15.0,-100.00,West,265,6.0,11.0,52,0.00,,,0.16,,2013-05-05 02:31:00,
2013-05-04 18:42:00,31.0,15.0,-100.00,West,265,6.0,11.0,52,0.00,,,0.16,,2013-05-05 02:42:00,
2013-05-04 18:52:00,30.0,14.0,-100.00,West,270,4.0,9.0,51,0.00,,,0.16,,2013-05-05 02:52:00,
2013-05-04 19:01:00,30.0,14.0,-100.00,West,270,4.0,9.0,51,0.00,,,0.16,,2013-05-05 03:01:00,
2013-05-04 19:11:00,30.0,14.0,-100.00,West,270,4.0,9.0,51,0.00,,,0.16,,2013-05-05 03:11:00,
2013-05-04 19:21:00,32.0,15.0,-100.00,NW,315,5.0,11.0,49,0.00,,,0.16,,2013-05-05 03:21:00,
2013-05-04 19:32:00,32.0,15.0,-100.00,NW,315,5.0,11.0,49,0.00,,,0.16,,2013-05-05 03:32:00,
2013-05-04 19:42:00,32.0,15.0,-100.00,NW,315,5.0,11.0,49,0.00,,,0.16,,2013-05-05 03:42:00,
2013-05-04 19:52:00,32.0,14.0,-100.00,WNW,290,3.0,9.0,48,0.00,,,0.16,,2013-05-05 03:52:00,
2013-05-04 20:02:00,32.0,14.0,-100.00,WNW,290,3.0,9.0,48,0.00,,,0.16,,2013-05-05 04:02:00,
2013-05-04 20:12:00,32.0,14.0,-100.00,WNW,290,3.0,9.0,48,0.00,,,0.16,,2013-05-05 04:12:00,
2013-05-04 20:22:00,33.0,14.0,-100.00,West,265,2.0,7.0,45,0.00,,,0.16,,2013-05-05 04:22:00,
2013-05-04 20:32:00,33.0,14.0,-100.00,West,265,2.0,7.0,45,0.00,,,0.16,,2013-05-05 04:32:00,
2013-05-04 20:43:00,33.0,14.0,-100.00,West,265,2.0,7.0,45,0.00,,,0.16,,2013-05-05 04:43:00,
2013-05-04 20:52:00,30.0,13.0,-100.00,WSW,255,2.0,6.0,47,0.00,,,0.16,,2013-05-05 04:52:00,
2013-05-04 21:02:00,30.0,13.0,-100.00,WSW,255,2.0,6.0,47,0.00,,,0.16,,2013-05-05 05:02:00,
2013-05-04 21:12:00,30.0,13.0,-100.00,WSW,255,2.0,6.0,47,0.00,,,0.16,,2013-05-05 05:12:00,
2013-05-04 21:21:00,30.0,13.0,-100.00,WSW,250,4.0,7.0,49,0.00,,,0.16,,2013-05-05 05:21:00,
2013-05-04 21:31:00,30.0,13.0,-100.00,WSW,250,4.0,7.0,49,0.00,,,0.16,,2013-05-05 05:31:00,
2013-05-04 21:42:00,30.0,13.0,-100.00,WSW,250,4.0,7.0,49,0.00,,,0.16,,2013-05-05 05:42:00,
2013-05-04 21:51:00,28.0,13.0,-100.00,WSW,250,3.0,7.0,53,0.00,,,0.16,,2013-05-05 05:51:00,
2013-05-04 22:01:00,28.0,13.0,-100.00,WSW,250,3.0,7.0,53,0.00,,,0.16,,2013-05-05 06:01:00,
2013-05-04 22:11:00,28.0,13.0,-100.00,WSW,250,3.0,7.0,53,0.00,,,0.16,,2013-05-05 06:11:00,
2013-05-04 22:21:00,28.0,14.0,-100.00,SW,215,4.0,9.0,55,0.00,,,0.16,,2013-05-05 06:21:00,
2013-05-04 22:32:00,28.0,14.0,-100.00,SW,215,4.0,9.0,55,0.00,,,0.16,,2013-05-05 06:32:00,
2013-05-04 22:42:00,28.0,14.0,-100.00,SW,215,4.0,9.0,55,0.00,,,0.16,,2013-05-05 06:42:00,
2013-05-04 22:51:00,26.0,14.0,-100.00,SSW,205,4.0,8.0,60,0.00,,,0.16,,2013-05-05 06:51:00,
2013-05-04 23:01:00,26.0,14.0,-100.00,SSW,205,4.0,8.0,60,0.00,,,0.16,,2013-05-05 07:01:00,
2013-05-04 23:11:00,26.0,14.0,-100.00,SSW,205,4.0,8.0,60,0.00,,,0.16,,2013-05-05 07:11:00,
2013-05-04 23:21:00,26.0,15.0,-100.00,SSW,205,4.0,7.0,64,0.00,,,0.16,,2013-05-05 07:21:00,
2013-05-04 23:32:00,26.0,15.0,-100.00,SSW,205,4.0,7.0,64,0.00,,,0.16,,2013-05-05 07:32:00,
2013-05-04 23:42:00,26.0,15.0,-100.00,SSW,205,4.0,7.0,64,0.00,,,0.16,,2013-05-05 07:42:00,
2013-05-04 23:52:00,25.0,16.0,-100.00,SW,220,4.0,7.0,67,0.00,,,0.16,,2013-05-05 07:52:00,